| time (UTC) | temp F | wind direction | speed MPH | gust MPH | rain 1hr in | rain 24hr in | rain mn in | humidity % | barometer mb |
| 20260508012734 | 38 | 277 | 1.0 | 6.0 | 0.00 | 0.00 | 0.00 | 81 | 1011.3 |
| 20260508012230 | 39 | 219 | 3.0 | 3.0 | 0.00 | 0.00 | 0.00 | 80 | 1011.3 |
| 20260508011729 | 39 | 283 | 2.0 | 3.0 | 0.00 | 0.00 | 0.00 | 80 | 1011.2 |
| 20260508011226 | 39 | 226 | 2.0 | 3.0 | 0.00 | 0.00 | 0.00 | 80 | 1011.2 |
| 20260508010722 | 39 | 252 | 3.0 | 4.0 | 0.00 | 0.00 | 0.00 | 79 | 1011.2 |
| 20260508010221 | 39 | 256 | 1.0 | 2.0 | 0.00 | 0.00 | 0.00 | 78 | 1011.2 |
| 20260508005718 | 39 | 278 | 0.0 | 4.0 | 0.00 | 0.00 | 0.00 | 77 | 1011.1 |
| 20260508005215 | 40 | 235 | 4.0 | 7.0 | 0.00 | 0.00 | 0.00 | 76 | 1011.3 |
| 20260508004710 | 40 | 284 | 2.0 | 7.0 | 0.00 | 0.00 | 0.00 | 75 | 1011.3 |
| 20260508004206 | 41 | 260 | 3.0 | 10.0 | 0.00 | 0.00 | 0.00 | 74 | 1011.3 |
| 20260508003703 | 41 | 269 | 5.0 | 10.0 | 0.00 | 0.00 | 0.00 | 73 | 1011.2 |
| 20260508003201 | 41 | 296 | 4.0 | 6.0 | 0.00 | 0.00 | 0.00 | 72 | 1011.2 |
| 20260508002657 | 41 | 307 | 3.0 | 6.0 | 0.00 | 0.00 | 0.00 | 72 | 1011.1 |
| 20260508002155 | 42 | 281 | 4.0 | 6.0 | 0.00 | 0.00 | 0.00 | 70 | 1011.2 |
| 20260508001650 | 42 | 306 | 3.0 | 6.0 | 0.00 | 0.00 | 0.00 | 70 | 1011.4 |
| 20260508001146 | 42 | 230 | 5.0 | 7.0 | 0.00 | 0.00 | 0.00 | 69 | 1011.4 |
| 20260508000642 | 41 | 287 | 2.0 | 6.0 | 0.00 | 0.00 | 0.00 | 69 | 1011.3 |
| 20260508000139 | 42 | 195 | 2.0 | 6.0 | 0.00 | 0.00 | 0.00 | 69 | 1011.3 |
| 20260507235635 | 42 | 265 | 6.0 | 7.0 | 0.00 | 0.00 | 0.00 | 69 | 1011.2 |
| 20260507235133 | 42 | 274 | 3.0 | 3.0 | 0.00 | 0.00 | 0.00 | 67 | 1011.2 |
| 20260507234630 | 42 | 264 | 7.0 | 10.0 | 0.00 | 0.00 | 0.00 | 67 | 1011.3 |
| 20260507234126 | 42 | 268 | 3.0 | 8.0 | 0.00 | 0.00 | 0.00 | 65 | 1011.3 |
| 20260507233623 | 43 | 291 | 7.0 | 11.0 | 0.00 | 0.00 | 0.00 | 64 | 1011.3 |
| 20260507233121 | 43 | 211 | 5.0 | 9.0 | 0.00 | 0.00 | 0.00 | 61 | 1011.1 |
| 20260507232618 | 43 | 235 | 5.0 | 11.0 | 0.00 | 0.00 | 0.00 | 61 | 1011.1 |
| 20260507232115 | 43 | 305 | 7.0 | 11.0 | 0.00 | 0.00 | 0.00 | 61 | 1011.2 |
| 20260507231611 | 43 | 295 | 5.0 | 9.0 | 0.00 | 0.00 | 0.00 | 59 | 1011.3 |
| 20260507231109 | 43 | 270 | 4.0 | 9.0 | 0.00 | 0.00 | 0.00 | 58 | 1011.3 |
| 20260507230605 | 43 | 299 | 6.0 | 9.0 | 0.00 | 0.00 | 0.00 | 57 | 1011.3 |
| 20260507225556 | 45 | 310 | 9.0 | 10.0 | 0.00 | 0.00 | 0.00 | 51 | 1011.1 |
| 20260507225053 | 46 | 306 | 7.0 | 14.0 | 0.00 | 0.00 | 0.00 | 50 | 1011.1 |
| 20260507224549 | 47 | 321 | 8.0 | 11.0 | 0.00 | 0.00 | 0.00 | 48 | 1011.1 |
| 20260507224046 | 47 | 332 | 9.0 | 11.0 | 0.00 | 0.00 | 0.00 | 47 | 1011.0 |
| 20260507223542 | 48 | 299 | 4.0 | 9.0 | 0.00 | 0.00 | 0.00 | 47 | 1011.0 |
| 20260507223039 | 47 | 267 | 4.0 | 7.0 | 0.00 | 0.00 | 0.00 | 44 | 1010.9 |
| 20260507222536 | 46 | 270 | 4.0 | 9.0 | 0.00 | 0.00 | 0.00 | 45 | 1011.0 |
| 20260507222033 | 46 | 301 | 4.0 | 11.0 | 0.00 | 0.00 | 0.00 | 45 | 1010.9 |
| 20260507221529 | 46 | 294 | 4.0 | 16.0 | 0.00 | 0.00 | 0.00 | 44 | 1010.8 |
| 20260507221026 | 48 | 279 | 7.0 | 11.0 | 0.00 | 0.00 | 0.00 | 42 | 1011.0 |
| 20260507220523 | 46 | 288 | 4.0 | 10.0 | 0.00 | 0.00 | 0.00 | 44 | 1011.0 |
| 20260507220021 | 46 | 285 | 4.0 | 10.0 | 0.00 | 0.00 | 0.00 | 43 | 1011.0 |
| 20260507215516 | 46 | 291 | 6.0 | 10.0 | 0.00 | 0.00 | 0.00 | 43 | 1010.8 |
| 20260507215015 | 47 | 197 | 5.0 | 11.0 | 0.00 | 0.00 | 0.00 | 41 | 1010.9 |
| 20260507214511 | 48 | 348 | 5.0 | 11.0 | 0.00 | 0.00 | 0.00 | 41 | 1010.7 |
| 20260507214007 | 47 | 283 | 5.0 | 9.0 | 0.00 | 0.00 | 0.00 | 41 | 1010.8 |
| 20260507213504 | 48 | 284 | 8.0 | 15.0 | 0.00 | 0.00 | 0.00 | 40 | 1010.8 |
| 20260507213000 | 48 | 255 | 6.0 | 14.0 | 0.00 | 0.00 | 0.00 | 39 | 1010.9 |
| 20260507212456 | 48 | 253 | 5.0 | 8.0 | 0.00 | 0.00 | 0.00 | 42 | 1010.7 |
| 20260507211953 | 48 | 50 | 8.0 | 11.0 | 0.00 | 0.00 | 0.00 | 41 | 1010.8 |
| 20260507211450 | 48 | 262 | 8.0 | 14.0 | 0.00 | 0.00 | 0.00 | 39 | 1010.9 |
| 20260507210947 | 48 | 313 | 8.0 | 11.0 | 0.00 | 0.00 | 0.00 | 38 | 1010.9 |
| 20260507210444 | 47 | 275 | 6.0 | 14.0 | 0.00 | 0.00 | 0.00 | 42 | 1010.8 |
| 20260507205941 | 48 | 296 | 8.0 | 14.0 | 0.00 | 0.00 | 0.00 | 39 | 1010.7 |
| 20260507205438 | 50 | 314 | 7.0 | 11.0 | 0.00 | 0.00 | 0.00 | 39 | 1010.7 |
| 20260507204934 | 48 | 294 | 5.0 | 11.0 | 0.00 | 0.00 | 0.00 | 41 | 1010.7 |
| 20260507204431 | 50 | 287 | 6.0 | 15.0 | 0.00 | 0.00 | 0.00 | 39 | 1010.7 |
| 20260507203928 | 48 | 269 | 5.0 | 10.0 | 0.00 | 0.00 | 0.00 | 42 | 1010.7 |
| 20260507203426 | 47 | 295 | 6.0 | 13.0 | 0.00 | 0.00 | 0.00 | 40 | 1010.8 |
| 20260507202922 | 47 | 261 | 9.0 | 13.0 | 0.00 | 0.00 | 0.00 | 40 | 1010.8 |
| 20260507202418 | 48 | 266 | 10.0 | 13.0 | 0.00 | 0.00 | 0.00 | 40 | 1010.7 |
| 20260507201914 | 47 | 280 | 4.0 | 15.0 | 0.00 | 0.00 | 0.00 | 43 | 1010.9 |
| 20260507201409 | 48 | 289 | 8.0 | 16.0 | 0.00 | 0.00 | 0.00 | 40 | 1011.0 |
| 20260507200906 | 48 | 334 | 10.0 | 17.0 | 0.00 | 0.00 | 0.00 | 42 | 1010.9 |
| 20260507200402 | 48 | 251 | 4.0 | 9.0 | 0.00 | 0.00 | 0.00 | 46 | 1010.9 |
| 20260507195858 | 48 | 273 | 7.0 | 13.0 | 0.00 | 0.00 | 0.00 | 44 | 1011.0 |
| 20260507195356 | 47 | 256 | 10.0 | 13.0 | 0.00 | 0.00 | 0.00 | 45 | 1010.9 |
| 20260507194853 | 49 | 296 | 3.0 | 10.0 | 0.00 | 0.00 | 0.00 | 49 | 1011.0 |
| 20260507194349 | 48 | 301 | 4.0 | 9.0 | 0.00 | 0.00 | 0.00 | 49 | 1011.1 |
| 20260507193845 | 48 | 321 | 9.0 | 10.0 | 0.00 | 0.00 | 0.00 | 45 | 1011.3 |
| 20260507193343 | 47 | 287 | 4.0 | 11.0 | 0.00 | 0.00 | 0.00 | 48 | 1011.2 |
| 20260507192839 | 48 | 292 | 4.0 | 10.0 | 0.00 | 0.00 | 0.00 | 45 | 1011.1 |
| 20260507192335 | 47 | 234 | 7.0 | 18.0 | 0.00 | 0.00 | 0.00 | 44 | 1011.4 |
| 20260507191832 | 47 | 274 | 9.0 | 11.0 | 0.00 | 0.00 | 0.00 | 49 | 1011.3 |
| 20260507191328 | 47 | 260 | 6.0 | 13.0 | 0.00 | 0.00 | 0.00 | 49 | 1011.2 |
| 20260507190825 | 48 | 313 | 6.0 | 11.0 | 0.00 | 0.00 | 0.00 | 49 | 1011.4 |
| 20260507190323 | 48 | 312 | 4.0 | 14.0 | 0.00 | 0.00 | 0.00 | 47 | 1011.1 |
| 20260507185822 | 47 | 247 | 4.0 | 8.0 | 0.00 | 0.00 | 0.00 | 46 | 1011.3 |
| 20260507185318 | 47 | 250 | 9.0 | 10.0 | 0.00 | 0.00 | 0.00 | 49 | 1011.4 |
| 20260507184816 | 46 | 268 | 11.0 | 15.0 | 0.00 | 0.00 | 0.00 | 48 | 1011.3 |
| 20260507184314 | 46 | 262 | 8.0 | 14.0 | 0.00 | 0.00 | 0.00 | 49 | 1011.6 |
| 20260507183810 | 46 | 284 | 5.0 | 13.0 | 0.00 | 0.00 | 0.00 | 50 | 1011.4 |
| 20260507183307 | 47 | 292 | 9.0 | 11.0 | 0.00 | 0.00 | 0.00 | 47 | 1011.4 |
| 20260507182805 | 45 | 279 | 4.0 | 10.0 | 0.00 | 0.00 | 0.00 | 49 | 1011.6 |
| 20260507182301 | 44 | 294 | 4.0 | 11.0 | 0.00 | 0.00 | 0.00 | 50 | 1011.6 |
| 20260507181757 | 46 | 233 | 6.0 | 18.0 | 0.00 | 0.00 | 0.00 | 47 | 1011.3 |
| 20260507181253 | 44 | 283 | 7.0 | 16.0 | 0.00 | 0.00 | 0.00 | 48 | 1011.7 |
| 20260507180750 | 44 | 297 | 6.0 | 16.0 | 0.00 | 0.00 | 0.00 | 48 | 1011.4 |
| 20260507180247 | 45 | 305 | 9.0 | 13.0 | 0.00 | 0.00 | 0.00 | 48 | 1011.4 |
| 20260507175742 | 43 | 270 | 7.0 | 15.0 | 0.00 | 0.00 | 0.00 | 52 | 1011.7 |
| 20260507175239 | 42 | 314 | 12.0 | 16.0 | 0.00 | 0.00 | 0.00 | 51 | 1011.4 |
| 20260507174736 | 43 | 278 | 5.0 | 7.0 | 0.00 | 0.00 | 0.00 | 51 | 1011.8 |
| 20260507174235 | 43 | 228 | 7.0 | 11.0 | 0.00 | 0.00 | 0.00 | 52 | 1011.9 |
| 20260507173732 | 43 | 303 | 7.0 | 15.0 | 0.00 | 0.00 | 0.00 | 53 | 1011.7 |
| 20260507173228 | 43 | 295 | 5.0 | 11.0 | 0.00 | 0.00 | 0.00 | 56 | 1011.9 |
| 20260507172725 | 44 | 231 | 5.0 | 10.0 | 0.00 | 0.00 | 0.00 | 54 | 1012.0 |
| 20260507172222 | 42 | 299 | 5.0 | 13.0 | 0.00 | 0.00 | 0.00 | 56 | 1011.8 |
| 20260507171722 | 43 | 302 | 5.0 | 7.0 | 0.00 | 0.00 | 0.00 | 58 | 1012.0 |
| 20260507171220 | 44 | 280 | 4.0 | 9.0 | 0.00 | 0.00 | 0.00 | 55 | 1011.9 |
| 20260507170716 | 42 | 275 | 4.0 | 9.0 | 0.00 | 0.00 | 0.00 | 58 | 1012.0 |
| 20260507170213 | 43 | 296 | 4.0 | 6.0 | 0.00 | 0.00 | 0.00 | 58 | 1012.1 |
| 20260507165709 | 43 | 296 | 4.0 | 8.0 | 0.00 | 0.00 | 0.00 | 60 | 1011.9 |
| 20260507165205 | 44 | 267 | 4.0 | 6.0 | 0.00 | 0.00 | 0.00 | 58 | 1012.0 |
| 20260507164701 | 43 | 268 | 6.0 | 11.0 | 0.00 | 0.00 | 0.00 | 57 | 1012.1 |
| 20260507164159 | 43 | 271 | 6.0 | 9.0 | 0.00 | 0.00 | 0.00 | 58 | 1012.3 |
| 20260507163656 | 43 | 251 | 5.0 | 8.0 | 0.00 | 0.00 | 0.00 | 59 | 1012.4 |
| 20260507163154 | 42 | 258 | 2.0 | 4.0 | 0.00 | 0.00 | 0.00 | 59 | 1012.5 |
| 20260507162649 | 42 | 266 | 4.0 | 7.0 | 0.00 | 0.00 | 0.00 | 60 | 1012.6 |
| 20260507162146 | 40 | 284 | 2.0 | 4.0 | 0.00 | 0.00 | 0.00 | 62 | 1012.7 |
| 20260507161642 | 40 | 289 | 3.0 | 9.0 | 0.00 | 0.00 | 0.00 | 60 | 1012.7 |
| 20260507161138 | 41 | 296 | 4.0 | 4.0 | 0.00 | 0.00 | 0.00 | 59 | 1012.9 |
| 20260507160635 | 41 | 274 | 4.0 | 6.0 | 0.00 | 0.00 | 0.00 | 58 | 1012.8 |
| 20260507160132 | 41 | 292 | 4.0 | 7.0 | 0.00 | 0.00 | 0.00 | 57 | 1012.6 |
| 20260507155627 | 41 | 314 | 4.0 | 9.0 | 0.00 | 0.00 | 0.00 | 57 | 1012.8 |
| 20260507155124 | 41 | 270 | 7.0 | 8.0 | 0.00 | 0.00 | 0.00 | 55 | 1013.0 |
| 20260507154621 | 41 | 308 | 2.0 | 6.0 | 0.00 | 0.00 | 0.00 | 55 | 1012.8 |
| 20260507154118 | 41 | 268 | 8.0 | 10.0 | 0.00 | 0.00 | 0.00 | 53 | 1012.8 |
| 20260507153614 | 41 | 336 | 5.0 | 9.0 | 0.00 | 0.00 | 0.00 | 53 | 1012.8 |
| 20260507153111 | 43 | 277 | 5.0 | 6.0 | 0.00 | 0.00 | 0.00 | 51 | 1012.8 |
| 20260507152607 | 43 | 297 | 3.0 | 8.0 | 0.00 | 0.00 | 0.00 | 53 | 1012.7 |
| 20260507152103 | 42 | 293 | 4.0 | 7.0 | 0.00 | 0.00 | 0.00 | 52 | 1012.7 |
| 20260507151559 | 41 | 320 | 3.0 | 6.0 | 0.00 | 0.00 | 0.00 | 54 | 1012.6 |
| 20260507151057 | 41 | 268 | 1.0 | 3.0 | 0.00 | 0.00 | 0.00 | 56 | 1012.7 |
| 20260507150554 | 40 | 320 | 4.0 | 7.0 | 0.00 | 0.00 | 0.00 | 54 | 1012.7 |
| 20260507150050 | 40 | 15 | 4.0 | 6.0 | 0.00 | 0.00 | 0.00 | 55 | 1012.7 |
| 20260507145545 | 41 | 298 | 8.0 | 11.0 | 0.00 | 0.00 | 0.00 | 55 | 1012.8 |
| 20260507145044 | 41 | 350 | 5.0 | 11.0 | 0.00 | 0.00 | 0.00 | 55 | 1012.9 |
| 20260507144540 | 41 | 304 | 4.0 | 10.0 | 0.00 | 0.00 | 0.00 | 56 | 1012.8 |
| 20260507144038 | 41 | 264 | 6.0 | 13.0 | 0.00 | 0.00 | 0.00 | 56 | 1012.8 |
| 20260507143534 | 42 | 297 | 4.0 | 8.0 | 0.00 | 0.00 | 0.00 | 58 | 1013.0 |
| 20260507143032 | 42 | 329 | 3.0 | 10.0 | 0.00 | 0.00 | 0.00 | 59 | 1012.7 |
| 20260507142527 | 41 | 263 | 3.0 | 8.0 | 0.00 | 0.00 | 0.00 | 60 | 1012.7 |
| 20260507142024 | 41 | 220 | 2.0 | 8.0 | 0.00 | 0.00 | 0.00 | 60 | 1012.8 |
| 20260507141520 | 40 | 356 | 3.0 | 10.0 | 0.00 | 0.00 | 0.00 | 62 | 1012.8 |
| 20260507141017 | 40 | 295 | 4.0 | 7.0 | 0.00 | 0.00 | 0.00 | 60 | 1013.0 |
| 20260507140514 | 39 | 259 | 6.0 | 11.0 | 0.00 | 0.00 | 0.00 | 63 | 1012.8 |
| 20260507140012 | 41 | 306 | 3.0 | 10.0 | 0.00 | 0.00 | 0.00 | 65 | 1012.7 |
| 20260507135508 | 40 | 28 | 2.0 | 8.0 | 0.00 | 0.00 | 0.00 | 67 | 1012.6 |
| 20260507135006 | 40 | 260 | 5.0 | 9.0 | 0.00 | 0.00 | 0.00 | 68 | 1012.8 |
| 20260507134502 | 40 | 262 | 5.0 | 7.0 | 0.00 | 0.00 | 0.00 | 71 | 1012.7 |
| 20260507133958 | 38 | 299 | 5.0 | 6.0 | 0.00 | 0.00 | 0.00 | 74 | 1012.8 |
| 20260507133454 | 38 | 309 | 6.0 | 9.0 | 0.00 | 0.00 | 0.00 | 74 | 1013.0 |
| 20260507132953 | 38 | 303 | 2.0 | 7.0 | 0.00 | 0.00 | 0.00 | 75 | 1012.9 |
| 20260507132448 | 37 | 278 | 2.0 | 8.0 | 0.00 | 0.00 | 0.00 | 77 | 1012.9 |
| 20260507131945 | 37 | 290 | 4.0 | 4.0 | 0.00 | 0.00 | 0.00 | 79 | 1013.0 |
| 20260507131442 | 36 | 270 | 2.0 | 6.0 | 0.00 | 0.00 | 0.00 | 78 | 1013.0 |
| 20260507130939 | 36 | 276 | 4.0 | 4.0 | 0.00 | 0.00 | 0.00 | 79 | 1012.9 |
| 20260507130436 | 37 | 268 | 3.0 | 6.0 | 0.00 | 0.00 | 0.00 | 79 | 1013.1 |
| 20260507125935 | 37 | 277 | 2.0 | 6.0 | 0.00 | 0.00 | 0.00 | 78 | 1012.9 |
| 20260507125432 | 36 | 262 | 4.0 | 6.0 | 0.00 | 0.00 | 0.00 | 79 | 1013.1 |
| 20260507124930 | 36 | 285 | 5.0 | 7.0 | 0.00 | 0.00 | 0.00 | 78 | 1013.1 |
| 20260507124425 | 36 | 302 | 4.0 | 6.0 | 0.00 | 0.00 | 0.00 | 78 | 1012.8 |
| 20260507123924 | 36 | 290 | 3.0 | 3.0 | 0.00 | 0.00 | 0.00 | 77 | 1013.1 |
| 20260507123421 | 36 | 268 | 1.0 | 4.0 | 0.00 | 0.00 | 0.00 | 77 | 1012.9 |
| 20260507122917 | 36 | 252 | 2.0 | 3.0 | 0.00 | 0.00 | 0.00 | 78 | 1012.9 |
| 20260507122413 | 36 | 256 | 4.0 | 6.0 | 0.00 | 0.00 | 0.00 | 79 | 1012.9 |
| 20260507121909 | 36 | 267 | 1.0 | 2.0 | 0.00 | 0.00 | 0.00 | 79 | 1013.0 |
| 20260507121404 | 36 | 317 | 3.0 | 4.0 | 0.00 | 0.00 | 0.00 | 79 | 1012.9 |
| 20260507120901 | 36 | 270 | 2.0 | 6.0 | 0.00 | 0.00 | 0.00 | 80 | 1012.9 |
| 20260507120358 | 36 | 264 | 2.0 | 4.0 | 0.00 | 0.00 | 0.00 | 81 | 1012.8 |
| 20260507115854 | 35 | 241 | 3.0 | 4.0 | 0.00 | 0.00 | 0.00 | 80 | 1012.9 |
| 20260507115350 | 35 | 271 | 0.0 | 2.0 | 0.00 | 0.00 | 0.00 | 81 | 1013.0 |
| 20260507114846 | 35 | 267 | 0.0 | 3.0 | 0.00 | 0.00 | 0.00 | 80 | 1012.8 |
| 20260507114343 | 35 | 298 | 2.0 | 2.0 | 0.00 | 0.00 | 0.00 | 80 | 1012.5 |
| 20260507113840 | 35 | 268 | 1.0 | 2.0 | 0.00 | 0.00 | 0.00 | 80 | 1012.5 |
| 20260507113337 | 35 | 265 | 0.0 | 3.0 | 0.00 | 0.00 | 0.00 | 80 | 1012.5 |
| 20260507112835 | 35 | 276 | 2.0 | 3.0 | 0.00 | 0.00 | 0.00 | 80 | 1012.7 |
| 20260507112332 | 35 | 291 | 2.0 | 3.0 | 0.00 | 0.00 | 0.00 | 80 | 1012.5 |
| 20260507111830 | 35 | 267 | 2.0 | 6.0 | 0.00 | 0.00 | 0.00 | 80 | 1012.6 |
| 20260507111326 | 35 | 262 | 2.0 | 4.0 | 0.00 | 0.00 | 0.00 | 80 | 1012.5 |
| 20260507110822 | 35 | 275 | 1.0 | 2.0 | 0.00 | 0.00 | 0.00 | 80 | 1012.6 |
| 20260507110318 | 35 | 262 | 2.0 | 3.0 | 0.00 | 0.00 | 0.00 | 80 | 1012.5 |
| 20260507105815 | 35 | 270 | 0.0 | 1.0 | 0.00 | 0.00 | 0.00 | 80 | 1012.5 |
| 20260507105312 | 35 | 270 | 4.0 | 4.0 | 0.00 | 0.00 | 0.00 | 79 | 1012.6 |
| 20260507104809 | 35 | 250 | 3.0 | 4.0 | 0.00 | 0.00 | 0.00 | 79 | 1012.5 |
| 20260507104305 | 35 | 277 | 2.0 | 2.0 | 0.00 | 0.00 | 0.00 | 78 | 1012.3 |
| 20260507103801 | 35 | 262 | 2.0 | 2.0 | 0.00 | 0.00 | 0.00 | 79 | 1012.4 |
| 20260507103258 | 35 | 265 | 0.0 | 2.0 | 0.00 | 0.00 | 0.00 | 79 | 1012.5 |
| 20260507102754 | 35 | 257 | 0.0 | 1.0 | 0.00 | 0.00 | 0.00 | 78 | 1012.4 |
| 20260507102251 | 35 | 262 | 0.0 | 0.0 | 0.00 | 0.00 | 0.00 | 79 | 1012.4 |
| 20260507101747 | 35 | 267 | 0.0 | 3.0 | 0.00 | 0.00 | 0.00 | 78 | 1012.6 |
| 20260507101237 | 35 | 266 | 0.0 | 0.0 | 0.00 | 0.00 | 0.00 | 79 | 1012.5 |
| 20260507100734 | 35 | 266 | 0.0 | 0.0 | 0.00 | 0.00 | 0.00 | 78 | 1012.6 |
| 20260507100232 | 35 | 273 | 0.0 | 0.0 | 0.00 | 0.00 | 0.00 | 78 | 1012.6 |
| 20260507095730 | 35 | 264 | 0.0 | 1.0 | 0.00 | 0.00 | 0.00 | 78 | 1012.5 |
| 20260507095221 | 35 | 267 | 0.0 | 1.0 | 0.00 | 0.00 | 0.00 | 78 | 1012.5 |
| 20260507094718 | 35 | 263 | 1.0 | 1.0 | 0.00 | 0.00 | 0.00 | 77 | 1012.5 |
| 20260507094215 | 35 | 261 | 0.0 | 1.0 | 0.00 | 0.00 | 0.00 | 78 | 1012.6 |
| 20260507093711 | 35 | 253 | 0.0 | 1.0 | 0.00 | 0.00 | 0.00 | 78 | 1012.4 |
| 20260507093209 | 35 | 266 | 0.0 | 0.0 | 0.00 | 0.00 | 0.00 | 79 | 1012.6 |
| 20260507092707 | 35 | 267 | 0.0 | 1.0 | 0.00 | 0.00 | 0.00 | 79 | 1012.4 |
| 20260507092203 | 35 | 249 | 0.0 | 0.0 | 0.00 | 0.00 | 0.00 | 79 | 1012.6 |
| 20260507091659 | 35 | 269 | 0.0 | 1.0 | 0.00 | 0.00 | 0.00 | 78 | 1012.6 |
| 20260507091150 | 35 | 266 | 0.0 | 1.0 | 0.00 | 0.00 | 0.00 | 78 | 1012.7 |
| 20260507090646 | 35 | 262 | 0.0 | 0.0 | 0.00 | 0.00 | 0.00 | 79 | 1012.6 |
| 20260507090143 | 35 | 263 | 0.0 | 0.0 | 0.00 | 0.00 | 0.00 | 79 | 1012.8 |
| 20260507085640 | 36 | 253 | 0.0 | 1.0 | 0.00 | 0.00 | 0.00 | 78 | 1012.9 |
| 20260507085137 | 36 | 259 | 0.0 | 0.0 | 0.00 | 0.00 | 0.00 | 78 | 1012.8 |
| 20260507084634 | 36 | 257 | 0.0 | 2.0 | 0.00 | 0.00 | 0.00 | 78 | 1012.9 |
| 20260507084130 | 36 | 269 | 2.0 | 2.0 | 0.00 | 0.00 | 0.00 | 78 | 1012.9 |
| 20260507083627 | 36 | 281 | 2.0 | 2.0 | 0.00 | 0.00 | 0.00 | 78 | 1012.8 |
| 20260507083124 | 36 | 263 | 0.0 | 0.0 | 0.00 | 0.00 | 0.00 | 78 | 1013.0 |
| 20260507082620 | 36 | 264 | 0.0 | 3.0 | 0.00 | 0.00 | 0.00 | 77 | 1012.9 |
| 20260507082116 | 36 | 262 | 0.0 | 0.0 | 0.00 | 0.00 | 0.00 | 77 | 1012.9 |
| 20260507081613 | 36 | 262 | 0.0 | 2.0 | 0.00 | 0.00 | 0.00 | 76 | 1013.0 |
| 20260507081110 | 36 | 245 | 0.0 | 2.0 | 0.00 | 0.00 | 0.00 | 76 | 1012.9 |
| 20260507080606 | 36 | 253 | 0.0 | 0.0 | 0.00 | 0.00 | 0.00 | 76 | 1013.1 |
| 20260507080103 | 36 | 261 | 0.0 | 0.0 | 0.00 | 0.00 | 0.00 | 75 | 1013.1 |
| 20260507075557 | 36 | 253 | 1.0 | 2.0 | 0.00 | 0.00 | 0.00 | 75 | 1013.0 |
| 20260507075054 | 36 | 248 | 1.0 | 2.0 | 0.00 | 0.00 | 0.00 | 75 | 1013.0 |
| 20260507074551 | 36 | 260 | 0.0 | 2.0 | 0.00 | 0.00 | 0.00 | 75 | 1013.2 |
| 20260507074049 | 36 | 264 | 1.0 | 1.0 | 0.00 | 0.00 | 0.00 | 76 | 1013.2 |
| 20260507073545 | 36 | 267 | 0.0 | 1.0 | 0.00 | 0.00 | 0.00 | 76 | 1013.2 |
| 20260507073042 | 36 | 253 | 1.0 | 3.0 | 0.00 | 0.00 | 0.00 | 75 | 1013.1 |
| 20260507072539 | 36 | 243 | 1.0 | 2.0 | 0.00 | 0.00 | 0.00 | 75 | 1013.2 |
| 20260507072036 | 36 | 265 | 1.0 | 1.0 | 0.00 | 0.00 | 0.00 | 75 | 1013.1 |
| 20260507071533 | 36 | 268 | 1.0 | 2.0 | 0.00 | 0.00 | 0.00 | 75 | 1013.2 |
| 20260507071030 | 36 | 261 | 0.0 | 0.0 | 0.00 | 0.00 | 0.00 | 75 | 1013.2 |
| 20260507070527 | 36 | 266 | 0.0 | 0.0 | 0.00 | 0.00 | 0.00 | 75 | 1013.5 |
| 20260507070024 | 36 | 267 | 0.0 | 0.0 | 0.00 | 0.00 | 0.00 | 74 | 1013.5 |
| 20260507065520 | 36 | 280 | 0.0 | 0.0 | 0.00 | 0.00 | 0.00 | 75 | 1013.5 |
| 20260507065018 | 36 | 268 | 0.0 | 0.0 | 0.00 | 0.00 | 0.00 | 75 | 1013.6 |
| 20260507064515 | 36 | 263 | 0.0 | 2.0 | 0.00 | 0.00 | 0.00 | 75 | 1013.4 |
| 20260507064014 | 36 | 266 | 0.0 | 2.0 | 0.00 | 0.00 | 0.00 | 75 | 1013.6 |
| 20260507063511 | 36 | 262 | 0.0 | 0.0 | 0.00 | 0.00 | 0.00 | 75 | 1013.8 |
| 20260507063008 | 36 | 269 | 0.0 | 1.0 | 0.00 | 0.00 | 0.00 | 74 | 1013.9 |
| 20260507062504 | 36 | 265 | 0.0 | 1.0 | 0.00 | 0.00 | 0.00 | 75 | 1013.8 |
| 20260507062003 | 36 | 271 | 1.0 | 2.0 | 0.00 | 0.00 | 0.00 | 75 | 1013.7 |
| 20260507061500 | 36 | 265 | 0.0 | 1.0 | 0.00 | 0.00 | 0.00 | 75 | 1013.8 |
| 20260507060958 | 36 | 273 | 0.0 | 0.0 | 0.00 | 0.00 | 0.00 | 74 | 1013.8 |
| 20260507060455 | 36 | 264 | 0.0 | 1.0 | 0.00 | 0.00 | 0.00 | 74 | 1013.8 |
| 20260507055951 | 36 | 277 | 1.0 | 2.0 | 0.00 | 0.00 | 0.00 | 74 | 1013.9 |
| 20260507055446 | 37 | 285 | 2.0 | 3.0 | 0.00 | 0.00 | 0.00 | 73 | 1014.0 |
| 20260507054943 | 37 | 274 | 0.0 | 1.0 | 0.00 | 0.00 | 0.00 | 72 | 1014.0 |
| 20260507054439 | 37 | 261 | 1.0 | 2.0 | 0.00 | 0.00 | 0.00 | 71 | 1014.0 |
| 20260507053937 | 37 | 257 | 0.0 | 0.0 | 0.00 | 0.00 | 0.00 | 71 | 1014.1 |
| 20260507053434 | 37 | 249 | 0.0 | 0.0 | 0.00 | 0.00 | 0.00 | 71 | 1014.0 |
| 20260507052933 | 37 | 260 | 0.0 | 0.0 | 0.00 | 0.00 | 0.00 | 71 | 1014.0 |
| 20260507052430 | 37 | 266 | 0.0 | 1.0 | 0.00 | 0.00 | 0.00 | 70 | 1014.1 |
| 20260507051927 | 37 | 281 | 1.0 | 1.0 | 0.00 | 0.00 | 0.00 | 70 | 1013.9 |
| 20260507051424 | 37 | 282 | 2.0 | 3.0 | 0.00 | 0.00 | 0.00 | 69 | 1014.2 |
| 20260507050921 | 37 | 253 | 0.0 | 0.0 | 0.00 | 0.00 | 0.00 | 69 | 1014.1 |
| 20260507050417 | 37 | 265 | 0.0 | 2.0 | 0.00 | 0.00 | 0.00 | 69 | 1014.2 |
| 20260507045914 | 37 | 271 | 0.0 | 2.0 | 0.00 | 0.00 | 0.00 | 69 | 1014.1 |
| 20260507045410 | 37 | 261 | 0.0 | 0.0 | 0.00 | 0.00 | 0.00 | 70 | 1014.2 |
| 20260507044908 | 37 | 265 | 0.0 | 1.0 | 0.00 | 0.00 | 0.00 | 71 | 1014.2 |
| 20260507044404 | 37 | 258 | 0.0 | 1.0 | 0.00 | 0.00 | 0.00 | 70 | 1014.2 |
| 20260507043900 | 37 | 266 | 2.0 | 2.0 | 0.00 | 0.00 | 0.00 | 69 | 1014.0 |
| 20260507043357 | 37 | 266 | 0.0 | 0.0 | 0.00 | 0.00 | 0.00 | 69 | 1014.2 |
| 20260507042853 | 37 | 265 | 0.0 | 2.0 | 0.00 | 0.00 | 0.00 | 70 | 1014.2 |
| 20260507042350 | 37 | 264 | 1.0 | 3.0 | 0.00 | 0.00 | 0.00 | 69 | 1014.4 |
| 20260507041846 | 37 | 304 | 3.0 | 4.0 | 0.00 | 0.00 | 0.00 | 68 | 1014.1 |
| 20260507041343 | 37 | 329 | 2.0 | 3.0 | 0.00 | 0.00 | 0.00 | 68 | 1014.2 |
| 20260507040840 | 37 | 254 | 1.0 | 3.0 | 0.00 | 0.00 | 0.00 | 67 | 1014.3 |
| 20260507040336 | 37 | 278 | 1.0 | 4.0 | 0.00 | 0.00 | 0.00 | 67 | 1014.3 |
| 20260507035832 | 37 | 286 | 1.0 | 3.0 | 0.00 | 0.00 | 0.00 | 67 | 1014.2 |
| 20260507035327 | 38 | 269 | 0.0 | 7.0 | 0.00 | 0.00 | 0.00 | 66 | 1014.3 |
| 20260507034826 | 38 | 259 | 3.0 | 7.0 | 0.00 | 0.00 | 0.00 | 66 | 1014.4 |
| 20260507034322 | 38 | 288 | 1.0 | 3.0 | 0.00 | 0.00 | 0.00 | 66 | 1014.4 |
| 20260507033820 | 38 | 286 | 1.0 | 6.0 | 0.00 | 0.00 | 0.00 | 65 | 1014.5 |
| 20260507033318 | 38 | 268 | 1.0 | 4.0 | 0.00 | 0.00 | 0.00 | 66 | 1014.5 |
| 20260507032815 | 38 | 264 | 1.0 | 2.0 | 0.00 | 0.00 | 0.00 | 65 | 1014.5 |
| 20260507032311 | 38 | 263 | 2.0 | 4.0 | 0.00 | 0.00 | 0.00 | 66 | 1014.4 |
| 20260507031808 | 38 | 294 | 2.0 | 6.0 | 0.00 | 0.00 | 0.00 | 65 | 1014.6 |
| 20260507031304 | 38 | 281 | 2.0 | 3.0 | 0.00 | 0.00 | 0.00 | 65 | 1014.5 |
| 20260507030801 | 38 | 270 | 0.0 | 2.0 | 0.00 | 0.00 | 0.00 | 65 | 1014.6 |
| 20260507030259 | 38 | 284 | 1.0 | 3.0 | 0.00 | 0.00 | 0.00 | 64 | 1014.6 |
| 20260507025755 | 38 | 301 | 2.0 | 4.0 | 0.00 | 0.00 | 0.00 | 64 | 1014.5 |
| 20260507025253 | 38 | 278 | 3.0 | 4.0 | 0.00 | 0.00 | 0.00 | 64 | 1014.6 |
| 20260507024751 | 38 | 280 | 1.0 | 6.0 | 0.00 | 0.00 | 0.00 | 65 | 1014.6 |
| 20260507024247 | 38 | 261 | 5.0 | 8.0 | 0.00 | 0.00 | 0.00 | 64 | 1014.7 |
| 20260507023743 | 38 | 280 | 3.0 | 9.0 | 0.00 | 0.00 | 0.00 | 64 | 1014.9 |
| 20260507023240 | 38 | 263 | 1.0 | 3.0 | 0.00 | 0.00 | 0.00 | 65 | 1014.6 |
| 20260507022737 | 38 | 305 | 2.0 | 7.0 | 0.00 | 0.00 | 0.00 | 64 | 1014.6 |
| 20260507022233 | 38 | 261 | 3.0 | 7.0 | 0.00 | 0.00 | 0.00 | 64 | 1014.9 |
| 20260507021730 | 38 | 326 | 2.0 | 6.0 | 0.00 | 0.00 | 0.00 | 64 | 1014.7 |
| 20260507021225 | 38 | 327 | 4.0 | 6.0 | 0.00 | 0.00 | 0.00 | 64 | 1014.9 |
| 20260507020724 | 38 | 273 | 1.0 | 3.0 | 0.00 | 0.00 | 0.00 | 64 | 1014.7 |
| 20260507020220 | 37 | 275 | 4.0 | 6.0 | 0.00 | 0.00 | 0.00 | 63 | 1014.7 |
| 20260507015718 | 37 | 284 | 4.0 | 6.0 | 0.00 | 0.00 | 0.00 | 64 | 1014.5 |
| 20260507015215 | 38 | 261 | 4.0 | 7.0 | 0.00 | 0.00 | 0.00 | 64 | 1014.7 |
| 20260507014711 | 37 | 290 | 2.0 | 4.0 | 0.00 | 0.00 | 0.00 | 65 | 1014.6 |
| 20260507014208 | 37 | 299 | 3.0 | 6.0 | 0.00 | 0.00 | 0.00 | 64 | 1014.6 |
| 20260507013704 | 37 | 274 | 4.0 | 4.0 | 0.00 | 0.00 | 0.00 | 64 | 1014.6 |
| 20260507013202 | 38 | 248 | 6.0 | 8.0 | 0.00 | 0.00 | 0.00 | 64 | 1014.7 |